Voltar ao catálogo

COSMOS 2251 DEB

AtivoLEO
NORAD 34472·DEBRIS·🇷🇺 Russia

Lançado Jun 16, 1993 de Plesetsk Cosmodrome

Loading…

Próximas Passagens (próximas 24 horas)

TLE

AtualizadoSource: Space-Track

Época: Sep 14, 2026, 10:21 UTC

1 34472U 93036TR  26257.43174651  .00000856  00000-0  66933-3 0  9993
2 34472  74.0850   4.4062 0328217  71.1893 292.4522 13.71001504875046

Acompanhe COSMOS 2251 DEB em tempo real com AllMySat

Download on the App Store